• In Deutschland
  • Länderverzeichnis
  • Für 7 Tage
  • Wassertemperatur
  • Satellitenkarten
  • Wetterkarte
  • Widgets
  • user-avatar
    Anmelden

    Stündliche Wetter Itzehoe

    Heute, 22 Januar, Montag

    Zeit Temperatur Niederschläge Wind Luftdruck Luftfeuchtigkeit
    00:00 -3°C° 0 mm 4 m/S 759 mmHg 93%
    01:00 -1°C° 0 mm 3 m/S 758 mmHg 95%
    02:00 -2°C° 0,1 mm 4 m/S 758 mmHg 93%
    03:00 -2°C° 0,1 mm 4 m/S 757 mmHg 92%
    04:00 -2°C° 0,1 mm 5 m/S 756 mmHg 91%
    05:00 -2°C° 0,1 mm 5 m/S 756 mmHg 90%
    06:00 -2°C° 0,1 mm 5 m/S 755 mmHg 89%
    07:00 -2°C° 0,1 mm 5 m/S 755 mmHg 88%
    08:00 -2°C° 0,1 mm 5 m/S 754 mmHg 88%
    09:00 -1°C° 0,1 mm 5 m/S 754 mmHg 88%
    10:00 -1°C° 0,1 mm 5 m/S 754 mmHg 88%
    11:00 -1°C° 0,2 mm 5 m/S 753 mmHg 88%
    12:00 -1°C° 0,2 mm 5 m/S 753 mmHg 89%
    13:00 -1°C° 0,2 mm 5 m/S 753 mmHg 90%
    14:00 -1°C° 0,1 mm 4 m/S 753 mmHg 91%
    15:00 0°C° 0,1 mm 3 m/S 753 mmHg 92%
    16:00 0°C° 0,1 mm 3 m/S 754 mmHg 93%
    17:00 0°C° 0,3 mm 3 m/S 754 mmHg 94%
    18:00 +1°C° 0,3 mm 2 m/S 754 mmHg 95%
    19:00 +1°C° 0,3 mm 2 m/S 755 mmHg 96%
    20:00 +1°C° 0,1 mm 2 m/S 756 mmHg 96%
    21:00 +2°C° 0,1 mm 2 m/S 756 mmHg 97%
    22:00 +2°C° 0,1 mm 2 m/S 757 mmHg 97%
    23:00 +1°C° 0 mm 3 m/S 758 mmHg 97%

    Morgen, 23 Januar, Dienstag

    Zeit Temperatur Niederschläge Wind Luftdruck Luftfeuchtigkeit
    00:00 +1°C° 0 mm 3 m/S 758 mmHg 97%
    01:00 +2°C° 0 mm 3 m/S 759 mmHg 97%
    02:00 +2°C° 0 mm 3 m/S 759 mmHg 98%
    03:00 +2°C° 0 mm 3 m/S 760 mmHg 98%
    04:00 +2°C° 0 mm 3 m/S 760 mmHg 98%
    05:00 +2°C° 0 mm 3 m/S 761 mmHg 98%
    06:00 +2°C° 0 mm 3 m/S 761 mmHg 98%
    07:00 +2°C° 0 mm 3 m/S 761 mmHg 98%
    08:00 +1°C° 0 mm 4 m/S 762 mmHg 98%
    09:00 +1°C° 0 mm 4 m/S 762 mmHg 98%
    10:00 +1°C° 0 mm 4 m/S 762 mmHg 97%
    11:00 +1°C° 0 mm 4 m/S 762 mmHg 97%
    12:00 +3°C° 0 mm 4 m/S 762 mmHg 96%
    13:00 +2°C° 0 mm 5 m/S 762 mmHg 95%
    14:00 +2°C° 0 mm 5 m/S 762 mmHg 94%
    15:00 +2°C° 0 mm 5 m/S 762 mmHg 94%
    16:00 +2°C° 0 mm 5 m/S 762 mmHg 94%
    17:00 +2°C° 0 mm 5 m/S 761 mmHg 93%
    18:00 +3°C° 0 mm 5 m/S 761 mmHg 93%
    19:00 +3°C° 0 mm 5 m/S 760 mmHg 93%
    20:00 +3°C° 0,1 mm 6 m/S 760 mmHg 93%
    21:00 +3°C° 0,1 mm 6 m/S 760 mmHg 92%
    22:00 +4°C° 0,1 mm 7 m/S 759 mmHg 92%
    23:00 +4°C° 0,1 mm 6 m/S 759 mmHg 93%

    übermorgen, 24 Januar, Mittwoch

    Zeit Temperatur Niederschläge Wind Luftdruck Luftfeuchtigkeit
    00:00 +5°C° 0,1 mm 6 m/S 759 mmHg 94%
    01:00 +5°C° 0,1 mm 6 m/S 758 mmHg 95%
    02:00 +6°C° 0,3 mm 7 m/S 758 mmHg 94%
    03:00 +6°C° 0,3 mm 7 m/S 758 mmHg 94%
    04:00 +8°C° 0,3 mm 7 m/S 758 mmHg 94%
    05:00 +8°C° 0,1 mm 7 m/S 758 mmHg 94%
    06:00 +8°C° 0,1 mm 6 m/S 758 mmHg 94%
    07:00 +8°C° 0,1 mm 6 m/S 758 mmHg 94%
    08:00 +9°C° 0,1 mm 7 m/S 757 mmHg 93%
    09:00 +9°C° 0,1 mm 7 m/S 757 mmHg 92%
    10:00 +10°C° 0,1 mm 8 m/S 757 mmHg 90%
    11:00 +10°C° 0 mm 8 m/S 757 mmHg 88%
    12:00 +10°C° 0 mm 9 m/S 756 mmHg 86%
    13:00 +11°C° 0 mm 9 m/S 756 mmHg 84%
    14:00 +11°C° 0 mm 9 m/S 755 mmHg 84%
    15:00 +11°C° 0 mm 9 m/S 754 mmHg 84%
    16:00 +11°C° 0 mm 9 m/S 754 mmHg 84%
    17:00 +11°C° 0,3 mm 9 m/S 754 mmHg 83%
    18:00 +11°C° 0,3 mm 9 m/S 753 mmHg 83%
    19:00 +11°C° 0,3 mm 9 m/S 753 mmHg 82%
    20:00 +10°C° 0,8 mm 8 m/S 753 mmHg 84%
    21:00 +8°C° 0,8 mm 7 m/S 754 mmHg 85%
    22:00 +7°C° 0,8 mm 6 m/S 754 mmHg 87%
    23:00 +7°C° 0,5 mm 5 m/S 754 mmHg 87%

    25 Januar, Donnerstag

    Zeit Temperatur Niederschläge Wind Luftdruck Luftfeuchtigkeit
    00:00 +6°C° 0,5 mm 5 m/S 754 mmHg 88%
    01:00 +6°C° 0,5 mm 4 m/S 754 mmHg 89%
    02:00 +6°C° 0,1 mm 4 m/S 754 mmHg 89%
    03:00 +6°C° 0,1 mm 4 m/S 754 mmHg 89%
    04:00 +6°C° 0,1 mm 4 m/S 754 mmHg 89%
    05:00 +5°C° 0 mm 4 m/S 754 mmHg 90%
    06:00 +5°C° 0 mm 4 m/S 754 mmHg 91%
    07:00 +5°C° 0 mm 4 m/S 754 mmHg 91%
    08:00 +5°C° 0,1 mm 4 m/S 754 mmHg 92%
    09:00 +5°C° 0,1 mm 4 m/S 754 mmHg 92%
    10:00 +6°C° 0,1 mm 4 m/S 754 mmHg 92%
    11:00 +6°C° 0 mm 4 m/S 754 mmHg 90%
    12:00 +6°C° 0 mm 4 m/S 754 mmHg 88%
    13:00 +8°C° 0 mm 3 m/S 754 mmHg 86%
    14:00 +7°C° 0 mm 3 m/S 754 mmHg 87%
    15:00 +7°C° 0 mm 3 m/S 753 mmHg 88%
    16:00 +7°C° 0 mm 3 m/S 753 mmHg 90%
    17:00 +6°C° 0,2 mm 4 m/S 753 mmHg 90%
    18:00 +5°C° 0,2 mm 4 m/S 753 mmHg 90%
    19:00 +5°C° 0,2 mm 5 m/S 753 mmHg 90%
    20:00 +5°C° 0 mm 5 m/S 753 mmHg 88%
    21:00 +3°C° 0 mm 6 m/S 754 mmHg 87%
    22:00 +3°C° 0 mm 6 m/S 754 mmHg 85%
    23:00 +3°C° 0 mm 6 m/S 755 mmHg 86%

    26 Januar, Freitag

    Zeit Temperatur Niederschläge Wind Luftdruck Luftfeuchtigkeit
    00:00 +3°C° 0 mm 5 m/S 755 mmHg 87%
    01:00 +2°C° 0 mm 5 m/S 756 mmHg 88%
    02:00 +2°C° 0 mm 5 m/S 756 mmHg 89%
    03:00 +2°C° 0 mm 5 m/S 756 mmHg 90%
    04:00 +2°C° 0 mm 5 m/S 756 mmHg 90%
    05:00 +2°C° 0 mm 5 m/S 757 mmHg 91%
    06:00 +1°C° 0 mm 5 m/S 757 mmHg 92%
    07:00 +1°C° 0 mm 5 m/S 757 mmHg 92%
    08:00 +1°C° 0 mm 5 m/S 758 mmHg 92%
    09:00 +2°C° 0 mm 5 m/S 758 mmHg 92%
    10:00 +3°C° 0 mm 4 m/S 758 mmHg 91%
    11:00 +2°C° 0 mm 5 m/S 759 mmHg 89%
    12:00 +3°C° 0 mm 5 m/S 759 mmHg 87%
    13:00 +5°C° 0 mm 5 m/S 759 mmHg 84%
    14:00 +4°C° 0 mm 4 m/S 759 mmHg 85%
    15:00 +4°C° 0 mm 4 m/S 760 mmHg 85%
    16:00 +4°C° 0 mm 4 m/S 760 mmHg 85%
    17:00 +4°C° 0,1 mm 4 m/S 760 mmHg 86%
    18:00 +4°C° 0,1 mm 4 m/S 761 mmHg 86%
    19:00 +4°C° 0,1 mm 4 m/S 761 mmHg 87%
    20:00 +3°C° 0,1 mm 4 m/S 761 mmHg 88%
    21:00 +3°C° 0,1 mm 4 m/S 762 mmHg 89%
    22:00 +3°C° 0,1 mm 4 m/S 762 mmHg 91%
    23:00 +3°C° 0 mm 4 m/S 762 mmHg 92%

    27 Januar, Samstag

    Zeit Temperatur Niederschläge Wind Luftdruck Luftfeuchtigkeit
    00:00 +3°C° 0 mm 4 m/S 763 mmHg 93%
    01:00 +3°C° 0 mm 4 m/S 763 mmHg 94%
    02:00 +3°C° 0 mm 4 m/S 764 mmHg 94%
    03:00 +2°C° 0 mm 3 m/S 764 mmHg 95%
    04:00 +2°C° 0 mm 3 m/S 765 mmHg 95%
    05:00 +2°C° 0 mm 3 m/S 766 mmHg 95%
    06:00 +2°C° 0 mm 3 m/S 766 mmHg 95%
    07:00 +2°C° 0 mm 3 m/S 767 mmHg 94%
    08:00 +2°C° 0 mm 3 m/S 768 mmHg 92%
    09:00 +2°C° 0 mm 3 m/S 769 mmHg 89%
    10:00 +2°C° 0 mm 3 m/S 769 mmHg 87%
    11:00 +3°C° 0 mm 4 m/S 770 mmHg 82%
    12:00 +4°C° 0 mm 4 m/S 771 mmHg 76%
    13:00 +5°C° 0 mm 4 m/S 771 mmHg 71%
    14:00 +4°C° 0 mm 4 m/S 772 mmHg 74%
    15:00 +4°C° 0 mm 3 m/S 772 mmHg 77%
    16:00 +3°C° 0 mm 3 m/S 773 mmHg 80%
    17:00 +3°C° 0 mm 2 m/S 773 mmHg 83%
    18:00 +3°C° 0 mm 2 m/S 773 mmHg 87%
    19:00 +2°C° 0 mm 2 m/S 774 mmHg 90%
    20:00 +1°C° 0 mm 2 m/S 774 mmHg 90%
    21:00 0°C° 0 mm 3 m/S 774 mmHg 91%
    22:00 0°C° 0 mm 3 m/S 775 mmHg 91%
    23:00 0°C° 0 mm 3 m/S 775 mmHg 91%
    Mehr zeigen